Regional Weather Roundup
Issued by NWS

Home | Current Version | Previous Version | Graphics & Text | Print | Product List | Glossary On
Versions: 1 2 3 4 5 6 7 8 9 10 11 12 13 14 15 16 17 18 19 20 21 22 23 24 25 26 27 28 29 30 31 32 33 34 35 36 37 38 39 40 41 42 43 44 45 46 47 48 49 50
000
ASUS45 KBOU 172010
RWRCO

WEATHER ROUNDUP FOR COLORADO
NATIONAL WEATHER SERVICE DENVER/BOULDER CO
100 PM MST SAT FEB 17 2018

NOTE: "FAIR" INDICATES FEW OR NO CLOUDS BELOW 12000 FEET WITH NO
SIGNIFICANT WEATHER AND/OR OBSTRUCTIONS TO VISIBILITY.

COZ001>005-013-030-031-172100-
...NORTHWEST COLORADO...

CITY           SKY/WX    TMP DP  RH WIND       PRES   REMARKS
CRAIG          FAIR      35  14  42 E8        30.13F WCI  29
HAYDEN         FAIR      34  14  43 SE6       30.13F WCI  29
MEEKER         FAIR      42  12  29 SW16G26   30.13F
RANGELY        FAIR      47  11  24 NW3       30.13F
RABBIT EARS PA FAIR      23  18  80 W10G22    30.08F WCI  12
STEAMBOAT SPGS FAIR      33  11  40 CALM      30.12F
WALDEN         FAIR      32   5  32 S17G26    30.07F WCI  21
$$

COZ006>008-011-172100-
...WEST CENTRAL VALLEYS...

CITY           SKY/WX    TMP DP  RH WIND       PRES   REMARKS
GRAND JUNCTION FAIR      44  23  43 W3        30.20F
MONTROSE       FAIR      44  18  35 NW5       30.20F
EAGLE          FAIR      42  13  30 SW12      30.17F
RIFLE          FAIR      39  17  41 CALM      30.19F
DELTA          FAIR      49  14  24 SE3       30.19F
NUCLA          FAIR      46  14  27 CALM      30.23F
$$

COZ017>023-064>068-172100-
...SOUTHWEST COLORADO...

CITY           SKY/WX    TMP DP  RH WIND       PRES   REMARKS
DURANGO        FAIR      45  17  32 VRB6      30.19F
CORTEZ         FAIR      50  14  23 VRB3      30.20F
PAGOSA SPRINGS FAIR      40  13  32 CALM      30.21F
TELLURIDE      FAIR      37 -10  13 CALM      30.23F
WOLF CREEK PAS   N/A     21  21 100 SW8       30.27F WCI  12
$$

COZ009-010-012-014-032>034-037-058>063-172100-
...CENTRAL COLORADO...

CITY           SKY/WX    TMP DP  RH WIND       PRES   REMARKS
ASPEN          FAIR      37  13  37 N6        30.16F
BUENA VISTA    FAIR      44  -2  14 W20G26    30.08F
COPPER MTN     FAIR      25   1  36 W17G25    30.14S WCI  11
BERTHOUD PASS  FAIR      16   5  62 NW41G63   30.01R WCI  -7
COTTONWOOD PAS FAIR      37   1  22 W23G37    30.10F
GUNNISON       FAIR      40  10  29 NE5       30.17F
GRANBY         FAIR      35  11  37 W15G29    30.11F WCI  25
KREMMLING      FAIR      43  10  26 W18G24    30.11F
LEADVILLE      FAIR      30   3  31 N15G24    30.12F WCI  19
MONARCH PASS   FAIR      19   5  53 W33G47    30.25F WCI   0
SALIDA         FAIR      47   3  16 W23G32    30.16F
SUNLIGHT       FAIR      27  14  59 SW12G21     N/A  WCI  16
WILKERSON PASS FAIR      30  -6  21 W9G22     30.14R WCI  22
$$

COZ069>075-172100-
...SAN LUIS VALLEY/SANGRE DE CRISTO MOUNTAINS...

CITY           SKY/WX    TMP DP  RH WIND       PRES   REMARKS
ALAMOSA        FAIR      42   8  24 VRB5      30.15F
DEL NORTE      FAIR      42  10  27 S8        30.15F
LA VETA PASS   FAIR      36   3  25 S28G41    30.25S
SAGUACHE       FAIR      46   0  14 NW21G26   30.15F
$$

COZ035-036-038>040-172100-
...NORTHERN COLORADO FRONT RANGE...

CITY           SKY/WX    TMP DP  RH WIND       PRES   REMARKS
DENVER INTL AP FAIR      49  11  21 SE12G22   30.01F
AURORA         MOSUNNY   50   7  17 S8        30.02F
FRONT RANGE AP MOSUNNY   50  10  20 E10G21    30.03F
ERIE MUNI ARPT FAIR      53   1  12 CALM      30.05F
BOULDER MUN AP FAIR      54   5  14 E6        29.98F
CENTENNIAL     FAIR      49   9  19 VRB3      30.01F
BROOMFIELD     MOSUNNY   50   7  17 S6        30.02
FORT COLLINS   FAIR      51  15  23 S21G26    29.97F
LONGMONT       FAIR      58   3  11 SW10G22   30.00F
$$

COZ041-046-047-076>085-087-088-172100-
...PIKES PEAK/PALMER DIVIDE AND SOUTHERN FOOTHILLS...

CITY           SKY/WX    TMP DP  RH WIND       PRES   REMARKS
COLO. SPRINGS  FAIR      46  14  27 SE15G24   30.06F
A. F. ACADEMY  FAIR      47  12  24 SE18      30.04F
SCHRIEVER AFB  NOT AVBL
CHEYENNE MTN   FAIR      42  13  29 SE21G29   29.99F
ELLICOTT         N/A    N/A N/A N/A S17       30.05F
FALCON         FAIR      44   9  23 S16G22    30.07F
FORT CARSON    FAIR      49  15  25 S15G23    30.04F
LIMON          FAIR      48   9  20 SW6       30.06F
MONUMENT HILL  FAIR      41  14  33 S15G23    30.06F
CANON CITY     SUNNY     55  16  21 E6G20     30.04F
WALSENBURG     NOT AVBL
TRINIDAD       FAIR      55  13  18 E8G20     30.07F
$$

COZ042>045-048>051-090-091-172100-
...NORTHEAST COLORADO...

CITY           SKY/WX    TMP DP  RH WIND       PRES   REMARKS
GREELEY ARPT   FAIR      52  11  19 S15       30.00F
AKRON          FAIR      47  13  25 W15G22    30.04F
BURLINGTON     FAIR      51  10  19 N15G30    30.08F
WRAY           FAIR      54   9  16 N13G23    30.06F
YUMA           NOT AVBL
STERLING       FAIR      52  12  20 NW22G28   30.00F
HOLYOKE        FAIR      54  16  22 NW20G26   30.05F
FORT MORGAN    FAIR      52   5  15 SW7G16    30.03F
$$

COZ086-089-092>099-172100-
...SOUTHEAST COLORADO...

CITY           SKY/WX    TMP DP  RH WIND       PRES   REMARKS
PUEBLO         FAIR      54  17  23 SE17      30.05F
LA JUNTA       FAIR      53  12  19 SE13      30.09F
LAMAR          FAIR      55  10  16 VRB5      30.08F
SPRINGFIELD      N/A     51   9  18 CALM      30.12F
$$



USA.gov is the U.S. government's official web portal to all federal, state and local government web resources and services.